Other Public Products
Issued by NWS Charleston, SC

Current Version | Previous Version | Graphics & Text | Print | Product List | Glossary On
Versions: 1 2 3 4 5 6 7 8 9 10 11 12 13 14 15 16 17 18 19 20 21 22 23 24 25 26 27 28 29 30 31 32 33 34 35 36 37 38 39 40 41 42 43 44 45 46 47 48 49 50
000 FPUS82 KCHS 272211 OPUCHS TEST...KCHS/KSAV Gateway Observations...TEST National Weather Service Charleston SC 500 PM EST MON FEB 27 2017 NOTE: "fair" indicates few or no clouds below 12,000 feet with no significant weather and/or obstructions to visibility. SCZ050-WAZ558-NCZ071-TXZ119-213-PAZ071-DCZ001-FLZ074-172-MI076- NYZ176-178-MAZ016-IL014-TNZ027-NJZ106-GAZ044-MD014-272300- ...Gateway Observations for Charleston International... CITY SKY/WX TMP DP RH WIND PRES REMARKS Chas Airport MOSUNNY 70 54 56 S10 30.32R Seattle PTSUNNY 41 36 82 S15G24 29.66S Charlotte CLOUDY 63 27 25 SE15 30.29F Dallas DFW PTSUNNY 79 63 57 S20 29.84F Dallas Love PTSUNNY 79 61 53 S17G24 29.85F Philladelphia CLOUDY 53 24 32 SW13 30.41R Wash National CLOUDY 54 33 45 S8 30.40S Baltimore CLOUDY 53 25 33 SE3 30.39R Miami MOSUNNY 79 69 71 E13 30.18R Detroit CLOUDY 49 33 54 S14 30.19F Newark CLOUDY 53 22 29 W14 30.36R Laguardia CLOUDY 52 33 48 VRB7 30.36R J F K MOCLDY 46 39 76 S21 30.38S Boston Logan PTCLDY 52 17 25 SW25G32 30.27R Ft. Lauderdale PTSUNNY 78 70 76 E15 30.18R Chicago O`Hare PTSUNNY 54 32 43 SW10 30.07F Chicago Midway PTSUNNY 54 31 41 S10G21 30.07F Houston Bush PTSUNNY 82 68 62 S17 29.92F Houston Hobby PTSUNNY 77 69 76 SE12 29.93S Nashville MOSUNNY 62 41 46 S12 30.16S Atlanta CLOUDY 51 47 86 E8 30.26R $$ GAZ044-118-TXZ119-213-NCZ071-DCZ001-MDZ014-506-PAZ021-071-NJZ106- NYZ176-178-MAZ106-OHZ011-021-055-MIZ076-KYZ091-ILZ014-INZ047- MNZ060-ONZ431-272300- ...Gateway Observations for Savannah International... CITY SKY/WX TMP DP RH WIND PRES REMARKS Savannah Arpt PTSUNNY 71 57 61 E9 30.28R Atlanta CLOUDY 51 47 86 E8 30.26R Charlotte CLOUDY 63 27 25 SE15 30.29F Dallas DFW PTSUNNY 79 63 57 S20 29.84F Houston Bush PTSUNNY 82 68 62 S17 29.92F Wash National CLOUDY 54 33 45 S8 30.40S Wash Dulles CLOUDY 54 20 26 S6 30.37F Baltimore CLOUDY 53 25 33 SE3 30.39R Philadelphia CLOUDY 53 24 32 SW13 30.41R Newark CLOUDY 53 22 29 W14 30.36R Laguardia CLOUDY 52 33 48 VRB7 30.36R J F K MOCLDY 46 39 76 S21 30.38S Boston PTCLDY 52 17 25 SW25G32 30.27R Pittsburg CLOUDY 42 37 82 S5 30.28F Akron CLOUDY 44 35 70 S14 30.23F Cleveland PTSUNNY 48 29 47 S8 30.26S Cincinnati PTSUNNY 49 44 83 SE8 30.19S Columbus CLOUDY 43 42 96 SE6 30.23S Detroit CLOUDY 49 33 54 S14 30.19F Chicago O`Hare PTSUNNY 54 32 43 SW10 30.07F Minneapolis CLOUDY 43 20 39 S10 29.90F Indianapolis PTSUNNY 50 40 68 SE12 30.14S Toronto Canada PTSUNNY 46 23 39 W12G17 30.22R $$

USA.gov is the U.S. government's official web portal to all federal, state and local government web resources and services.